Location: Bodest
(46.3000°N, 22.5667°E)
Time: 00:20:53
(UTC+00:00)

Cosmos 1269 Rocket - Pass Details

Date: 16 October 2021
Orbit: 773 x 778 km, 74.1° (Epoch: 05 December)

Event Time Altitude Azimuth Distance (km) Brightness Sun altitude
Rises 17:23:17 0° 339° (NNW) 3,269 7.6 -18.3°
Reaches altitude 10° 17:25:42 10° 342° (NNW) 2,337 6.8 -18.8°
Maximum altitude 17:31:00 73° 67° (ENE) 814 3.9 -19.7°
Enters shadow 17:33:59 26° 147° (SSE) 1,475 5.1 -20.2°
